Location: *
(43.6428°N, 11.5461°E)
Time: 20:29:09
(UTC+00:00)

Cosmos 2278 Rocket - Pass Details

Date: 21 October 2019
Orbit: 840 x 846 km, 71.0° (Epoch: 22 November)

Event Time Altitude Azimuth Distance (km) Brightness Sun altitude
Rises 16:53:17 0° 190° (S) 3,387 5.6 -6.5°
Reaches altitude 10° 16:55:45 10° 186° (S) 2,457 4.8 -6.9°
Maximum altitude 17:01:15 56° 109° (ESE) 998 2.3 -7.9°
Drops below altitude 10° 17:06:47 10° 33° (NNE) 2,477 4.3 -8.9°
Sets 17:09:17 0° 29° (NNE) 3,416 5.0 -9.4°
